This demonstration page uses our WeatherBlox Daily Observations layout. Learn more.

Left ArrowRight Arrow

Hourly Observations for January 19, 2017

Temp ( °F °C ) Dew Point ( °F °C ) Humidity (%) Winds ( mph kmh ) Pressure ( in mb ) Visibility ( mi km ) Precip ( " mm )
12:14 am 00:14 Mostly Cloudy 43 6 39 4 87 87 undefined N/A 30.12 1020 10 16 N/A
12:34 am 00:34 Cloudy 45 7 39 4 81 81 undefined N/A 30.12 1020 10 16 N/A
12:54 am 00:54 Cloudy 45 7 39 4 81 81 NW 7 11 30.12 1020 10 16 N/A
1:14 am 01:14 Cloudy 45 7 39 4 81 81 undefined N/A 30.12 1020 10 16 N/A
1:34 am 01:34 Cloudy 46 8 39 4 76 76 WNW 9 15 30.12 1020 10 16 N/A
1:54 am 01:54 Cloudy 46 8 39 4 76 76 NW 7 11 30.12 1020 10 16 N/A
2:34 am 02:34 Cloudy 45 7 39 4 81 81 NW 13 20 30.12 1020 10 16 N/A
2:54 am 02:54 Mostly Cloudy 45 7 39 4 81 81 WNW 10 17 30.12 1020 10 16 N/A
3:34 am 03:34 Cloudy 46 8 39 4 76 76 N 3 6 30.12 1020 10 16 N/A
3:54 am 03:54 Cloudy 46 8 39 4 76 76 N 3 6 30.12 1020 10 16 N/A
4:14 am 04:14 Cloudy 46 8 39 4 76 76 NNW 5 7 30.12 1020 10 16 N/A
4:34 am 04:34 Cloudy 46 8 39 4 76 76 NNW 3 6 30.12 1020 10 16 N/A
4:54 am 04:54 Cloudy 46 8 39 4 76 76 N 3 6 30.09 1019 10 16 N/A
5:14 am 05:14 Cloudy 46 8 39 4 76 76 N N/A 30.12 1020 10 16 N/A
5:34 am 05:34 Cloudy 45 7 39 4 81 81 N N/A 30.12 1020 10 16 N/A
5:54 am 05:54 Cloudy 45 7 39 4 81 81 N N/A 30.12 1020 10 16 N/A
6:14 am 06:14 Cloudy 45 7 39 4 81 81 N N/A 30.12 1020 10 16 N/A
6:34 am 06:34 Cloudy 45 7 39 4 81 81 N N/A 30.12 1020 10 16 N/A
7:14 am 07:14 Cloudy 45 7 39 4 81 81 N N/A 30.12 1020 10 16 N/A
7:34 am 07:34 Cloudy 45 7 39 4 81 81 N N/A 30.15 1021 10 16 N/A
7:56 am 07:56 Cloudy 45 7 39 4 81 81 N N/A 30.12 1020 10 16 N/A
8:14 am 08:14 Cloudy 45 7 39 4 81 81 N N/A 30.12 1020 10 16 N/A
8:34 am 08:34 Cloudy with Nearby Thunderstorms 46 8 39 4 76 76 N N/A 30.12 1020 10 16 N/A
8:54 am 08:54 Cloudy 46 8 39 4 76 76 N N/A 30.15 1021 10 16 N/A
9:14 am 09:14 Mostly Cloudy 46 8 39 4 76 76 N N/A 30.15 1021 10 16 N/A
9:34 am 09:34 Partly Cloudy 46 8 39 4 76 76 N N/A 30.15 1021 10 16 N/A
9:54 am 09:54 Mostly Cloudy 48 9 39 4 71 71 NNW 3 6 30.15 1021 10 16 N/A
10:14 am 10:14 Cloudy 48 9 39 4 71 71 NW 6 9 30.15 1021 10 16 N/A
10:34 am 10:34 Cloudy 48 9 39 4 71 71 NW 6 9 30.15 1021 10 16 N/A
10:54 am 10:54 Mostly Cloudy 48 9 41 5 76 76 NW 8 13 30.15 1021 10 16 N/A
11:14 am 11:14 Mostly Cloudy 50 10 41 5 71 71 W 6 9 30.12 1020 10 16 N/A
11:34 am 11:34 Partly Cloudy 50 10 41 5 71 71 WNW 6 9 30.12 1020 10 16 N/A
11:54 am 11:54 Partly Cloudy 50 10 39 4 67 67 NW 7 11 30.12 1020 10 16 N/A
12:14 pm 12:14 Mostly Cloudy 50 10 41 5 71 71 NW 5 7 30.12 1020 10 16 N/A
12:36 pm 12:36 Partly Cloudy 52 11 41 5 67 67 WNW 7 11 30.06 1018 10 16 N/A
1:14 pm 13:14 Sunny 52 11 39 4 62 62 NNW 3 6 30.03 1017 10 16 N/A
1:34 pm 13:34 Sunny 52 11 41 5 67 67 N N/A 30.03 1017 10 16 N/A
1:56 pm 13:56 Sunny 52 11 39 4 62 62 N 5 7 30.03 1017 10 16 N/A
2:14 pm 14:14 Sunny 52 11 41 5 67 67 NNW 3 6 30.03 1017 10 16 N/A
2:34 pm 14:34 Sunny 52 11 39 4 62 62 NW 6 9 30.03 1017 10 16 N/A
2:54 pm 14:54 Sunny 52 11 39 4 62 62 N N/A 30.03 1017 10 16 N/A
3:14 pm 15:14 Sunny 54 12 39 4 58 58 NNW 6 9 30.03 1017 10 16 N/A
3:34 pm 15:34 Sunny 54 12 39 4 58 58 W 5 7 30.03 1017 10 16 N/A
3:54 pm 15:54 Sunny 52 11 39 4 62 62 N N/A 30.03 1017 10 16 N/A
4:54 pm 16:54 Sunny 50 10 39 4 67 67 N N/A 30.00 1016 10 16 N/A
5:14 pm 17:14 Sunny 48 9 39 4 71 71 N N/A 30.03 1017 10 16 N/A
5:34 pm 17:34 Clear 46 8 39 4 76 76 N N/A 30.06 1018 10 16 N/A
5:54 pm 17:54 Clear 46 8 39 4 76 76 N N/A 30.06 1018 10 16 N/A
6:16 pm 18:16 Clear 45 7 39 4 81 81 N N/A 30.06 1018 10 16 N/A
6:34 pm 18:34 Clear 45 7 39 4 81 81 N N/A 30.06 1018 10 16 N/A
6:54 pm 18:54 Clear 41 5 37 3 87 87 N N/A 30.06 1018 10 16 N/A
7:14 pm 19:14 Clear 39 4 37 3 93 93 undefined N/A 30.06 1018 10 16 N/A
7:34 pm 19:34 Clear 41 5 39 4 93 93 undefined N/A 30.06 1018 10 16 N/A
7:54 pm 19:54 Clear 37 3 37 3 100 100 undefined N/A 30.06 1018 10 16 N/A
8:14 pm 20:14 Clear 39 4 37 3 93 93 undefined N/A 30.06 1018 10 16 N/A
8:34 pm 20:34 Clear 37 3 37 3 100 100 N N/A 30.06 1018 10 16 N/A
8:54 pm 20:54 Clear 36 2 36 2 100 100 undefined N/A 30.06 1018 10 16 N/A
9:14 pm 21:14 Clear 36 2 36 2 100 100 N N/A 30.06 1018 10 16 N/A
9:34 pm 21:34 Clear 37 3 37 3 100 100 undefined N/A 30.06 1018 10 16 N/A
9:56 pm 21:56 Clear 37 3 37 3 100 100 undefined N/A 30.06 1018 10 16 N/A
10:14 pm 22:14 Clear 37 3 36 2 93 93 N N/A 30.06 1018 10 16 N/A
10:34 pm 22:34 Clear 36 2 34 1 93 93 N N/A 30.06 1018 10 16 N/A
10:54 pm 22:54 Clear 36 2 36 2 100 100 N N/A 30.06 1018 10 16 N/A
11:14 pm 23:14 Clear 34 1 34 1 100 100 N N/A 30.06 1018 10 16 N/A
11:34 pm 23:34 Clear 34 1 34 1 100 100 N N/A 30.06 1018 10 16 N/A
11:54 pm 23:54 Clear 34 1 34 1 100 100 N N/A 30.06 1018 10 16 N/A

Powered by AerisWeather